Siemreap, Cambodia

7:41 PM +07 on May 30, 2017 (GMT +0700)
Siem Reap

Weather History for VDSR - January, 2013

Change the Weather History Date:

Thursday, January 17, 2013

  Actual Average Record
Temperature  
Mean Temperature 78 °F -  
Max Temperature 87 °F - - ()
Min Temperature 69 °F - - ()
Cooling Degree Days 13    
Growing Degree Days 28 (Base 50)    
Moisture  
Dew Point 59 °F    
Average Humidity 52    
Maximum Humidity 88    
Minimum Humidity 27    
Precipitation  
Precipitation 0.00 in - - ()
Sea Level Pressure  
Sea Level Pressure 29.93 in    
Wind  
Wind Speed 5 mph ()    
Max Wind Speed 13 mph    
Max Gust Speed -    
Visibility 5.5 miles    
Events      
T = Trace of Precipitation, MM = Missing Value Source: Averaged Metar Reports

Daily Weather History Graph

Daily Weather History Graph

Search for Another Location

Airport or City:

Trip Planner

Search our weather history database for the weather conditions in past years. The results will help you decide how hot, cold, wet, or windy it might be!

Date:

Astronomy

Jan. 17, 2013 Rise Set
Actual Time 6:31 AM +07 5:57 PM +07
Civil Twilight 6:08 AM +07 6:20 PM +07
Nautical Twilight 5:42 AM +07 6:46 PM +07
Astronomical Twilight 5:16 AM +07 7:12 PM +07
Moon 10:28 AM +07 (1/17) 11:04 PM +07 (1/17)
Length of Visible Light 12h 11m
Length of Day
11h 26m
Waxing Crescent, 32% of the Moon is Illuminated
Jan 17
Waxing Crescent
Jan 19
First Quarter
Jan 27
Full
Feb 3
Last Quarter
Feb 10
New

Hourly Weather History & Observations

Time (+07) Temp. Heat Index Dew Point Humidity Pressure Visibility Wind Dir Wind Speed Gust Speed Precip Events Conditions
12:00 AM 75.2 °F - 68.0 °F 78% 29.92 in 3.7 mi NE 3.5 mph - N/A   Unknown
12:30 AM 75.2 °F - 68.0 °F 78% 29.89 in 3.7 mi ENE 3.5 mph - N/A   Unknown
1:00 AM 71.6 °F - 68.0 °F 88% 29.89 in 3.7 mi Variable 2.3 mph - N/A   Unknown
7:00 AM 69.8 °F - 59.0 °F 68% 29.98 in 5.0 mi SE 3.5 mph - N/A   Unknown
7:30 AM 69.8 °F - 59.0 °F 68% 29.98 in 5.0 mi East 3.5 mph - N/A   Unknown
8:00 AM 73.4 °F - 59.0 °F 61% 30.01 in - East 3.5 mph - N/A   Clear
8:30 AM 75.2 °F - 57.2 °F 53% 30.01 in - East 5.8 mph - N/A   Clear
9:30 AM 80.6 °F 81.1 °F 59.0 °F 48% 30.01 in - ENE 11.5 mph - N/A   Clear
10:00 AM 80.6 °F 81.1 °F 59.0 °F 48% 30.01 in - ENE 9.2 mph - N/A   Clear
10:30 AM 82.4 °F 82.5 °F 59.0 °F 45% 30.01 in - ENE 8.1 mph - N/A   Clear
11:00 AM 84.2 °F 83.5 °F 57.2 °F 40% 30.01 in 6.2 mi ENE 12.7 mph - N/A   Partly Cloudy
11:30 AM 84.2 °F 83.5 °F 57.2 °F 40% 29.98 in 6.2 mi NE 12.7 mph - N/A   Partly Cloudy
12:00 PM 86.0 °F 84.5 °F 55.4 °F 35% 29.95 in 6.2 mi ENE 12.7 mph - N/A   Scattered Clouds
12:30 PM 86.0 °F 84.2 °F 53.6 °F 33% 29.95 in 6.2 mi NNE 12.7 mph - N/A   Scattered Clouds
1:00 PM 86.0 °F - 50.0 °F 29% 29.92 in 6.2 mi NE 8.1 mph - N/A   Scattered Clouds
1:30 PM 86.0 °F 84.2 °F 53.6 °F 33% 29.89 in 6.2 mi NE 12.7 mph - N/A   Scattered Clouds
2:00 PM 86.0 °F 84.2 °F 53.6 °F 33% 29.89 in 6.2 mi ENE 5.8 mph - N/A   Scattered Clouds
2:30 PM 87.8 °F 85.7 °F 53.6 °F 31% 29.86 in 6.2 mi East 6.9 mph - N/A   Scattered Clouds
3:00 PM 87.8 °F - 51.8 °F 29% 29.86 in 6.2 mi ENE 11.5 mph - N/A   Scattered Clouds
3:30 PM 87.8 °F - 50.0 °F 27% 29.86 in 6.2 mi SE 4.6 mph - N/A   Partly Cloudy
4:00 PM 87.8 °F - 51.8 °F 29% 29.86 in 6.2 mi NE 9.2 mph - N/A   Partly Cloudy
4:30 PM 87.8 °F - 51.8 °F 29% 29.86 in 6.2 mi NNE 3.5 mph - N/A   Partly Cloudy
5:00 PM 87.8 °F - 51.8 °F 29% 29.89 in 6.2 mi NE 5.8 mph - N/A   Partly Cloudy
5:30 PM 84.2 °F 84.4 °F 60.8 °F 45% 29.89 in 6.2 mi SW 3.5 mph - N/A   Partly Cloudy
6:00 PM 82.4 °F 83.4 °F 62.6 °F 51% 29.89 in 6.2 mi SW 3.5 mph - N/A   Partly Cloudy
6:30 PM 80.6 °F 82.3 °F 64.4 °F 58% 29.92 in 5.6 mi SW 1.2 mph - N/A   Unknown
7:00 PM 77.0 °F - 66.2 °F 69% 29.92 in 5.6 mi Variable 1.2 mph - N/A   Unknown
7:30 PM 77.0 °F - 66.2 °F 69% 29.92 in 5.6 mi Variable 1.2 mph - N/A   Unknown
8:00 PM 75.2 °F - 66.2 °F 73% 29.95 in 5.0 mi SSE 1.2 mph - N/A   Unknown
8:30 PM 77.0 °F - 66.2 °F 69% 29.95 in 5.0 mi Calm Calm - N/A   Unknown
9:00 PM 73.4 °F - 64.4 °F 73% 29.95 in 5.0 mi North 4.6 mph - N/A   Unknown
9:30 PM 77.0 °F - 60.8 °F 57% 29.95 in 5.0 mi NE 3.5 mph - N/A   Unknown
10:00 PM 75.2 °F - 60.8 °F 61% 29.95 in 5.0 mi NNE 3.5 mph - N/A   Unknown
10:30 PM 75.2 °F - 60.8 °F 61% 29.95 in 5.0 mi NNE 2.3 mph - N/A   Unknown
11:00 PM 73.4 °F - 62.6 °F 69% 29.95 in 4.3 mi Calm Calm - N/A   Unknown
11:30 PM 73.4 °F - 60.8 °F 65% 29.95 in 4.3 mi NNE 3.5 mph - N/A   Unknown